Location: Helsinki
(60.1699°N, 24.9384°E)
Time: 23:23:13
(UTC+02:00)

Vanguard 2 Rocket - Pass Details

Date: 28 September 2023
Orbit: 553 x 3312 km, 32.9° (Epoch: 28 November)

Event Time Altitude Azimuth Distance (km) Brightness Sun altitude
Rises 14:45:12 0° 243° (WSW) 6,989 12.2 25.1°
Reaches altitude 10° 14:50:53 10° 233° (SW) 6,166 12.4 24.8°
Maximum altitude 15:05:20 26° 187° (S) 4,929 12.2 23.9°
Drops below altitude 10° 15:18:34 10° 140° (SE) 5,619 11.2 23.0°
Sets 15:23:25 0° 129° (SE) 6,284 11.2 22.7°
